Location: Mohawk View
(42.7837°N, 73.7885°W)
Time: 12:31:04
(UTC+00:00)

Cosmos 2233 Rocket - Pass Details

Date: 17 June 2021
Orbit: 953 x 990 km, 82.9° (Epoch: 27 July)

Event Time Altitude Azimuth Distance (km) Brightness Sun altitude
Rises 02:55:34 0° 356° (N) 3,641 8.2 -18.2°
Reaches altitude 10° 02:58:08 10° 0° (N) 2,693 7.2 -18.5°
Maximum altitude 03:04:10 56° 79° (ENE) 1,129 4.2 -19.0°
Enters shadow 03:06:53 32° 142° (SE) 1,580 4.5 -19.2°
